User: anonymous   Login
Location: Newark
(53.3469°N, 7.1606°E)
Time: 15:25:49
(UTC+00:00)
Language:

N. Korean satellite - Orbit

View from above orbital plane
View from above orbital plane
View from above satellite
View from above satellite

Ground track
Ground track

The orbit data is extracted from the following two-line orbital elements,

1 39026U 12072A   19339.47326826  .00000894  00000-0  34579-4 0  9998
2 39026  97.2161 337.2085 0036606 215.5460 144.3341 15.28221301387520
Epoch (UTC): 05 December 2019 11:21:30
Eccentricity: 0.0036606
inclination: 97.2161°
perigee height: 456 km
apogee height: 506 km
right ascension of ascending node: 337.2085°
argument of perigee: 215.5460°
revolutions per day: 15.28221301
mean anomaly at epoch: 144.3341°
orbit number at epoch: 38752

The dashed part of the orbit path shows where the satellite is in the earth's shadow,  

DLR